Date,TemperatureHighF,TemperatureAvgF,TemperatureLowF,DewpointHighF,DewpointAvgF,DewpointLowF,HumidityHigh,HumidityAvg,HumidityLow,PressureMaxIn,PressureMinIn,WindSpeedMaxMPH,WindSpeedAvgMPH,GustSpeedMaxMPH,PrecipitationSumIn
2013-5-2,-200,0,200,-100,-100,-100,0,0,100,0.00,40.00,0,-999,0,0.00
2013-5-9,85,82,76,61,59,58,57,46,41,30.03,30.02,5,3,5,2.87
2013-5-13,64,57,52,48,45,39,84,66,42,30.18,30.05,14,4,14,0.01
2013-5-14,76,61,45,49,41,29,99,53,22,30.27,30.07,16,5,16,0.00
2013-5-15,92,72,56,65,55,43,82,57,34,30.08,29.91,14,5,14,0.00
2013-5-16,87,77,66,66,62,56,91,64,37,30.00,29.89,21,5,21,0.00
2013-5-17,98,78,65,70,65,58,99,69,30,30.09,29.98,100,3,100,0.00
2013-5-18,87,73,64,72,67,62,99,85,45,30.15,30.06,36,4,36,0.71
2013-5-19,84,72,66,72,68,63,99,89,53,30.15,30.05,25,4,25,1.15
2013-5-20,82,72,68,73,70,67,99,94,71,30.12,30.02,11,3,11,0.37
2013-5-21,94,76,69,75,70,69,99,85,52,30.06,29.94,17,4,17,0.04
2013-5-22,90,76,70,74,69,65,98,80,46,30.04,29.90,15,5,15,0.00
2013-5-23,86,76,70,72,69,64,98,81,56,29.96,29.80,18,4,18,0.00
2013-5-24,74,68,59,68,54,40,95,64,34,30.19,29.80,36,13,36,0.07
2013-5-25,76,62,48,57,44,31,92,55,24,30.27,30.13,22,8,22,0.00
2013-5-26,83,66,54,58,48,38,97,55,25,30.28,30.15,14,4,14,0.01
2013-5-27,86,70,53,61,55,46,99,65,28,30.28,30.14,14,4,14,0.00
2013-5-28,90,76,63,66,63,58,96,67,43,30.26,30.12,14,4,14,0.00
2013-5-29,91,78,64,68,64,62,99,67,40,30.25,30.13,19,5,19,0.00
2013-5-30,94,78,65,70,66,61,99,69,38,30.28,30.15,13,4,13,0.00
2013-5-31,94,80,68,71,68,63,98,68,40,30.23,30.09,13,5,13,0.00